Regional Weather Roundup
Issued by NWS Kansas City/Pleasant Hill, MO

Home | Current Version | Previous Version | Graphics & Text | Print | Product List | Glossary Off
Versions: 1 2 3 4 5 6 7 8 9 10 11 12 13 14 15 16 17 18 19 20 21 22 23 24 25 26 27 28 29 30 31 32 33 34 35 36 37 38 39 40 41 42 43 44 45 46 47 48 49 50

457
ASUS43 KEAX 050710
RWREAX

WEATHER ROUNDUP FOR EASTERN KANSAS AND NORTHWEST MISSOURI
NATIONAL WEATHER SERVICE KANSAS CITY/PLEASANT HILL MO
100 AM CST MON DEC 05 2016

KSZ040-057-103>105-MOZ028-029-037-043-050800-
...KANSAS CITY METROPOLITAN AREA...

CITY           SKY/WX    TMP DP  RH WIND       PRES   REMARKS
K.C. INTL      CLEAR     31  28  89 S6        29.96F WCI  25
K.C. DOWNTOWN  CLEAR     32  32 100 CALM      29.98F
LEES SUMMIT    CLEAR     36  34  92 S5        29.99F WCI  32
OLATHE - IXD   PTCLDY    29  29 100 S7        29.98F FOG     WCI  22
OLATHE - OJC   CLEAR     30  30 100 S5        29.98F FOG     WCI  25
LAWRENCE       CLEAR     30  30 100 E7        29.97F WCI  23

$$

MOZ001>008-011>017-020>025-030>033-038>040-044>046-053-054-050800-
...NORTHERN AND CENTRAL MISSOURI...

CITY           SKY/WX    TMP DP  RH WIND       PRES   REMARKS
ST. JOSEPH     CLEAR     31  30  96 S3        29.95F FOG
MOSBY          FOG       28  28 100 CALM      29.99F VSB 1/4
WARRENSBURG    CLEAR     32  32 100 CALM      30.00F FOG
WHITEMAN AFB   CLEAR     32  32 100 CALM      29.99F
CLINTON        FOG       28  28 100 CALM      30.01R VSB 1/2
SEDALIA        CLEAR     35  32  88 W3        30.01F
WARSAW         NOT AVBL
CHILLICOTHE      N/A     27  26  96 S3        30.00S
KIRKSVILLE     FOG       29  28  96 SW3       29.99R VSB 1/4

$$

MOZ041-047>049-056>058-063>065-088>090-097-050800-
...EASTERN AND SOUTHERN MISSOURI...

CITY           SKY/WX    TMP DP  RH WIND       PRES   REMARKS
ST. LOUIS INTL PTCLDY    35  31  85 CALM      30.04S
SPIRIT OF STL  CLEAR     28  28 100 CALM      30.04S FOG
COLUMBIA       CLEAR     34  33  96 W5        30.01S WCI  30
JEFFERSON CITY FOG       28  27  96 CALM      30.03S VSB 1/2
ROLLA          CLEAR     29  29 100 SE6       30.01S WCI  23
OSAGE BEACH    CLOUDY    27  26  96 SE3       30.04R
SPRINGFIELD    CLOUDY    31  29  92 S5        30.02S FOG     WCI  26
BRANSON          N/A    N/A N/A N/A CALM      30.04S
JOPLIN         CLOUDY    35  35 100 S5        30.03F WCI  31
WEST PLAINS    CLOUDY    30  29  96 CALM      30.05S FOG

$$

IAZ060-094-KSZ022-034>040-054-083-096-NEZ052-066-093-050800-
...KANSAS...SOUTHEAST NEBRASKA AND IOWA...

CITY           SKY/WX    TMP DP  RH WIND       PRES   REMARKS
TOPEKA         CLEAR     31  28  89 CALM      29.95F
MANHATTAN      CLEAR     28  27  96 CALM      29.93F
EMPORIA        CLEAR     32  32 100 S9        29.96F WCI  24
CHANUTE        CLEAR     30  28  92 SE8       30.00F FOG     WCI  22
WICHITA        CLEAR     32  31  96 S5        29.95F WCI  27
OMAHA          PTCLDY    29  25  85 SE9       29.86F WCI  20
LINCOLN        CLEAR     31  27  85 CALM      29.85F
FALLS CITY     CLEAR     33  31  92 S10       29.92F WCI  25
LAMONI         FOG       30  30 100 S5        29.93F VSB 1/4 WCI  25
DES MOINES     CLEAR     31  30  96 S12       29.90F FOG     WCI  22

$$





USA.gov is the U.S. government's official web portal to all federal, state and local government web resources and services.